Starlink 6143

operational
NORAD ID: 57133 Int'l Des: 2023-090 Owner: SPXS Country: US Constellation: starlink
LEOCIRCULAR

关于 Starlink 6143

正在加载描述...

实时位置

正在加载3D地球...

即将过境

高度历史

Altitude vs Time

uPlot chart will show altitude changes over time

两行轨道根数

1 57133U 23090AJ 25306.07707473 -.00000613 00000-0 -30328-4 0 9996
2 57133 43.0058 235.3417 0001370 265.3230 94.7456 15.02533454131178
Epoch: Nov 2, 2025 • Age: 36 hours

当前状态

高度 562.0 km
速度 7.58 km/s
星下点 -16.10°S, 174.24°E
发射日期 Jun 23, 2023
运行时间 2.3 years
类型 internet

技术详情

分类 Payload
质量 305.00 kg
干质量 290.00 kg
总质量 305.00 kg
长度 0.20 m
直径 2.80 m
跨度 9.00 m
形状 Box + pan
制造商 SPXS
平台类型 Starlink
阶段状态 In Orbit
所有者/国家 SPXS/US

大型星座

Loading constellations...